Regional Weather Roundup
Issued by NWS

Home | Current Version | Previous Version | Text Only | Print | Product List | Glossary On
Versions: 1 2 3 4 5 6 7 8 9 10 11 12 13 14 15 16 17 18 19 20 21 22 23 24 25 26 27 28 29 30 31 32 33 34 35 36 37 38 39 40 41 42 43 44 45 46 47 48 49 50
000
ASUS44 KLIX 271110
RWRLA
LOUISIANA WEATHER ROUNDUP
NATIONAL WEATHER SERVICE NEW ORLEANS LA
500 AM CST THU NOV 27 2014

NOTE: "FAIR" INDICATES FEW OR NO CLOUDS BELOW 12,000 FEET WITH NO
      SIGNIFICANT WEATHER AND/OR OBSTRUCTIONS TO VISIBILITY.
      SKY/WX - SKY CONDITION AND SIGNIFICANT WEATHER.
      TMP - AIR TEMPERATURE.    DP   - DEWPOINT TEMPERATURE.
      RH  - RELATIVE HUMIDITY.  PRES - PRESSURE.
      HX  - HEAT INDEX.         WCI  - WIND CHILL INDEX.

*  THESE STATIONS ARE NOT NWS OR FAA STATIONS AND ARE NOT UNDER
   NWS QUALITY CONTROL.

LAZ040-048-061>063-065-066-069-271200-
SOUTHEAST LOUISIANA

CITY           SKY/WX    TMP DP  RH WIND       PRES   REMARKS
N.O. AUDUBON     N/A     53  44  70 MISG        N/A
N.O. INTL ARPT CLEAR     51  44  77 NW6       30.34R
N.O. LAKEFRONT CLEAR     55  45  68 NW12      30.35R
N.O. DOWNTOWN* FAIR      55  39  54 N6        30.34S
SLIDELL        CLEAR     41  39  93 CALM      30.34R
BATON ROUGE    CLEAR     41  39  93 CALM      30.36R
BOOTHVILLE     CLEAR     55  49  80 NW9       30.33R
BELLE CHASSE   CLEAR     48  42  80 N3        30.33R
BOGALUSA*        N/A     39  37  90 CALM      30.35R
NEW ROADS*     FAIR      44  38  77 W5        30.38R
GONZALES*      FAIR      46  44  91 NW3       30.36R
HAMMOND*       CLEAR     41  39  93 CALM      30.37R
HOUMA*         CLEAR     49  45  84 NW5       30.34R
PORT FOURCHON* SUNNY     55  48  76 NW8       30.37R

$$

LAZ041-044-053-054-271200-
SOUTHWEST LOUISIANA

CITY           SKY/WX    TMP DP  RH WIND       PRES   REMARKS
LAKE CHARLES   CLEAR     45  39  79 NE5       30.39R
LAFAYETTE      CLEAR     49  39  68 N7        30.38R
PATTERSON      CLEAR     50  43  76 N6        30.38R
SALT POINT       N/A     55  44  66 N5        30.35R
NEW IBERIA     CLEAR     45  41  86 N6        30.37R
CHENAULT AIRPK NOT AVBL

$$

LAZ027-028-271200-
CENTRAL LOUISIANA

CITY           SKY/WX    TMP DP  RH WIND       PRES   REMARKS
FORT POLK      CLEAR     40  37  86 N6        30.40R
ALEXANDRIA INT CLEAR     42  34  73 NW7       30.39R
ALEXANDRIA     CLEAR     47  32  56 VRB7      30.39R

$$

LAZ001-002-271200-
NORTHWEST LOUISIANA

CITY           SKY/WX    TMP DP  RH WIND       PRES   REMARKS
SHREVEPORT     CLEAR     43  31  62 N7        30.43S
BARKSDALE AFB  CLEAR     40  30  66 N10       30.44R WCI  33
DTN SHREVEPORT CLEAR     42  28  57 N7        30.45R

$$

LAZ014-016-271200-
NORTHEAST LOUISIANA

CITY           SKY/WX    TMP DP  RH WIND       PRES   REMARKS
MONROE         CLEAR     43  31  62 N15       30.42R
TALLULAH       CLEAR     41  32  70 NW5       30.39R

$$




USA.gov is the U.S. government's official web portal to all federal, state and local government web resources and services.